[[{"header":{"parameterUnit":"m.s-1","parameterCategory":1,"la1":30.2991,"la2":30.254,"lo1":-89.0895,"lo2":-89.0444,"dy":0.0017,"dx":0.0017,"nx":28,"ny":28,"refTime":"2025-04-02T09:00:00:Z","depth":0,"parameterNumber":2,"parameterNumberName":"U-component_of_WINDS"},"data":[0,0,0,0,0,0,0,0,0,0,0,0,0,0,0,0,0,0,0,0,0,0,0,0,0,0,0,0,0,0,0,0,0,0,0,0,0,0,0,0,0,0,0,0,0,0,0,0,0,0,0,0,0,0,0,0,0,0,-4.4308,-4.4309,0,-4.4426,-4.4427,-4.4429,-4.4461,-4.446,-4.4459,-4.4459,-4.4577,-4.4581,-4.4585,0,0,0,0,0,0,0,0,0,0,0,0,0,-4.411,-4.4113,-4.4308,-4.431,-4.4311,-4.4426,-4.4427,-4.4429,-4.4461,-4.446,-4.4459,-4.4458,-4.4576,-4.4581,-4.4585,0,0,0,0,0,0,0,0,0,0,0,0,0,-4.4209,-4.4115,-4.4308,-4.4341,-4.4345,-4.4425,-4.4427,-4.4429,-4.4461,-4.446,-4.4459,-4.4458,-4.4575,-4.458,-4.4586,-4.4641,0,0,-4.4603,-4.4606,0,0,0,0,0,0,0,0,-4.4203,-4.4216,-4.4334,-4.4339,-4.4343,-4.4428,-4.4401,-4.45,-4.4461,-4.4417,-4.4459,-4.4457,-4.4528,-4.4538,-4.4562,-4.4647,-4.4652,-4.4604,-4.4607,-4.461,-4.4611,0,0,0,0,0,0,0,-4.4196,-4.4211,-4.4355,-4.4336,-4.4342,-4.4349,-4.4362,-4.442,-4.4477,-4.4421,-4.4423,-4.4437,-4.453,-4.4556,-4.4565,-4.4654,-4.4604,-4.4609,-4.4612,-4.4614,-4.479,-4.4791,0,0,0,0,0,0,-4.4184,-4.4205,-4.4351,-4.4358,-4.4269,-4.4354,-4.4368,-4.4402,-4.4476,-4.4487,-4.4438,-4.4438,-4.4547,-4.4558,-4.4569,-4.4639,-4.461,-4.4615,-4.4618,-4.4789,-4.479,-4.4792,0,0,0,0,0,0,-4.4179,-4.4196,-4.4346,-4.4282,-4.4302,-4.4358,-4.4395,-4.4404,-4.443,-4.4489,-4.4499,-4.4454,-4.4547,-4.4561,-4.4623,-4.4643,-4.4617,-4.4623,-4.4787,-4.4789,-4.4791,-4.4778,0,0,0,0,0,0,-4.4174,-4.4195,-4.4216,-4.4283,-4.4305,-4.4398,-4.4397,-4.4407,-4.444,-4.4442,-4.4507,-4.4517,-4.4547,-4.4615,-4.4629,-4.4651,-4.4627,-4.4786,-4.4788,-4.4791,-4.4777,-4.4779,-4.4781,0,0,0,0,0,-4.4166,-4.4208,-4.4217,-4.4235,-4.4334,-4.4399,-4.4412,-4.4447,-4.4442,-4.4464,-4.4502,-4.4514,-4.4639,-4.4621,-4.4637,-4.4661,-4.4785,-4.4788,-4.479,-4.4776,-4.4779,-4.4781,0,0,0,0,0,0,-4.4141,-4.4217,-4.4228,-4.4292,-4.4339,-4.4405,-4.4433,-4.4449,-4.4498,-4.4497,-4.4538,-4.4552,-4.4611,-4.4643,-4.4621,-4.4718,-4.4712,-4.4718,-4.4695,-4.4699,-4.4701,-4.4691,-4.4632,0,0,0,0,0,-4.4143,-4.4191,-4.4254,-4.4304,-4.4328,-4.4377,-4.4406,-4.4429,-4.4479,-4.4499,-4.4542,-4.4589,-4.4639,-4.4671,-4.472,-4.4782,-4.4796,-4.4807,-4.4809,-4.481,-4.4815,-4.4849,-4.4854,-4.4801,-4.4801,-4.4801,0,0,-4.4147,-4.4195,-4.4222,-4.4301,-4.434,-4.4387,-4.4393,-4.4443,-4.4479,-4.4507,-4.4567,-4.4601,-4.4657,-4.4719,-4.4748,-4.4746,-4.4833,-4.4814,-4.4815,-4.4818,-4.4853,-4.4858,-4.4862,-4.4803,-4.4803,-4.4802,0,0,-4.4179,-4.422,-4.4267,-4.4306,-4.4366,-4.4398,-4.4409,-4.4473,-4.4496,-4.4558,-4.458,-4.4623,-4.4709,-4.4747,-4.4778,-4.4827,-4.484,-4.4842,-4.4852,-4.4886,-4.489,-4.4894,-4.491,-4.4915,-4.4846,-4.4846,-4.4846,0,-4.4177,-4.425,-4.4288,-4.4338,-4.4371,-4.44,-4.4447,-4.4483,-4.4555,-4.4578,-4.4576,-4.4684,-4.4723,-4.4795,-4.4807,-4.4831,-4.4845,-4.4833,-4.4886,-4.4891,-4.4895,-4.4911,-4.4917,-4.4846,-4.4846,-4.4846,-4.4846,0,-4.4243,-4.4294,-4.4324,-4.4394,-4.4431,-4.4479,-4.4524,-4.4558,-4.4578,-4.4611,-4.4674,-4.4723,-4.4783,-4.4802,-4.4822,-4.4876,-4.4873,-4.4878,-4.4872,-4.4899,-4.4914,-4.4921,-4.4846,-4.4846,-4.4846,-4.4846,0,0,-4.426,-4.4352,-4.4362,-4.4394,-4.4463,-4.4502,-4.4552,-4.4611,-4.4638,-4.4688,-4.4729,-4.4802,-4.4807,-4.4842,-4.4867,-4.4897,-4.4931,-4.4898,-4.49,-4.4901,-4.4993,-4.4988,-4.4994,-4.4941,-4.4943,-4.4944,-4.4988,0,-4.43,-4.4389,-4.4425,-4.4498,-4.4544,-4.4573,-4.4617,-4.4663,-4.4695,-4.474,-4.4776,-4.4826,-4.483,-4.4851,-4.4882,-4.492,-4.495,-4.4918,-4.498,-4.4981,-4.4963,-4.5003,-4.4997,-4.5036,-4.4995,-4.4996,-4.4996,0,-4.4357,-4.4407,-4.4484,-4.4547,-4.4568,-4.4606,-4.4663,-4.4706,-4.4759,-4.4781,-4.4821,-4.4845,-4.4898,-4.489,-4.4963,-4.494,-4.4968,-4.4991,-4.4994,-4.4999,-4.4989,-4.5007,-4.505,-4.5055,-4.5007,-4.5006,-4.5005,0,-4.4359,-4.4447,-4.4504,-4.4531,-4.4606,-4.4632,-4.4665,-4.4718,-4.4751,-4.4802,-4.4823,-4.4879,-4.4909,-4.4952,-4.499,-4.4981,-4.5059,-4.5055,-4.5077,-4.5076,-4.5091,-4.5089,-4.5136,-4.5112,-4.5112,-4.5111,-4.5111,0,-4.4398,-4.4444,-4.4506,-4.4541,-4.4593,-4.4635,-4.4685,-4.472,-4.4767,-4.4809,-4.4838,-4.4877,-4.4926,-4.4971,-4.5002,-4.5057,-4.5071,-4.5089,-4.5096,-4.5085,-4.5083,-4.5102,-4.51,-4.5113,-4.5113,-4.5112,-4.5112,0,-4.4409,-4.4453,-4.4517,-4.4584,-4.4602,-4.4637,-4.4694,-4.4729,-4.4764,-4.4817,-4.4832,-4.4886,-4.494,-4.4984,-4.5055,-4.5075,-4.5133,-4.5142,-4.5115,-4.5118,-4.5138,-4.5135,-4.5198,-4.5208,-4.5178,-4.5178,-4.5178,0,-4.443,-4.4466,-4.4537,-4.4567,-4.46,-4.4649,-4.4683,-4.4727,-4.4761,-4.4826,-4.4853,-4.491,-4.4957,-4.5043,-4.5089,-4.5143,-4.5153,-4.5171,-4.5161,-4.5149,-4.5151,-4.5148,-4.5151,-4.5171,-4.5172,-4.5172,-4.5172,0,-4.4462,-4.4482,-4.4531,-4.4588,-4.4628,-4.4675,-4.4722,-4.4745,-4.4797,-4.4835,-4.4891,-4.4928,-4.5002,-4.5057,-4.5117,-4.5151,-4.517,-4.5175,-4.5183,-4.5171,-4.5154,-4.5162,-4.5116,-4.5173,-4.5173,-4.5173,-4.5173,-4.5173,-4.4478,-4.4511,-4.4566,-4.4619,-4.466,-4.4703,-4.4739,-4.4779,-4.4827,-4.489,-4.4913,-4.4971,-4.5025,-4.5107,-4.5141,-4.5187,-4.5188,-4.52,-4.5203,-4.5204,-4.5203,-4.5148,-4.5198,-4.5198,-4.5198,-4.5199,-4.5199,0,-4.451,-4.4547,-4.4596,-4.4661,-4.4704,-4.4719,-4.4773,-4.4807,-4.4857,-4.4906,-4.4953,-4.5018,-4.5073,-4.5123,-4.518,-4.5207,-4.5217,-4.5221,-4.5218,-4.5225,-4.5199,-4.5186,-4.5211,-4.5211,-4.5211,-4.5211,-4.5211,-4.5211,-4.4531,-4.4588,-4.4615,-4.4692,-4.4729,-4.4786,-4.4815,-4.4856,-4.4895,-4.4966,-4.5012,-4.5045,-4.5095,-4.5156,-4.5207,-4.522,-4.5239,-4.524,-4.5255,-4.5229,-4.5227,-4.5225,-4.5213,-4.5244,-4.5244,-4.5278,-4.5278,-4.5279]},{"header":{"parameterUnit":"m.s-1","parameterCategory":1,"la1":30.2991,"la2":30.254,"lo1":-89.0895,"lo2":-89.0444,"dy":0.0017,"dx":0.0017,"nx":28,"ny":28,"refTime":"2025-04-02T09:00:00:Z","depth":0,"parameterNumber":3,"parameterNumberName":"V-component_of_WINDS"},"data":[0,0,0,0,0,0,0,0,0,0,0,0,0,0,0,0,0,0,0,0,0,0,0,0,0,0,0,0,0,0,0,0,0,0,0,0,0,0,0,0,0,0,0,0,0,0,0,0,0,0,0,0,0,0,0,0,0,0,5.3711,5.3711,0,5.3793,5.3794,5.3795,5.3811,5.381,5.381,5.3809,5.3892,5.3895,5.3897,0,0,0,0,0,0,0,0,0,0,0,0,0,5.3568,5.357,5.371,5.3712,5.3713,5.3793,5.3794,5.3795,5.3811,5.381,5.3809,5.3809,5.3891,5.3894,5.3898,0,0,0,0,0,0,0,0,0,0,0,0,0,5.3638,5.3571,5.371,5.373,5.3733,5.3793,5.3794,5.3795,5.3811,5.381,5.3809,5.3808,5.389,5.3894,5.3898,5.3943,0,0,5.3911,5.3913,0,0,0,0,0,0,0,0,5.3634,5.3643,5.3726,5.3729,5.3732,5.3791,5.3774,5.3845,5.3811,5.3781,5.3809,5.3808,5.3859,5.3866,5.3883,5.3947,5.3951,5.3911,5.3914,5.3916,5.3917,0,0,0,0,0,0,0,5.3629,5.364,5.3743,5.3727,5.3731,5.3735,5.3744,5.3788,5.3824,5.3784,5.3785,5.3795,5.386,5.3879,5.3885,5.3952,5.3911,5.3915,5.3918,5.3919,5.4061,5.4063,0,0,0,0,0,0,5.3621,5.3636,5.374,5.3746,5.368,5.3739,5.3749,5.3773,5.3824,5.3831,5.3796,5.3795,5.3872,5.388,5.3888,5.3947,5.3916,5.392,5.3922,5.406,5.4062,5.4063,0,0,0,0,0,0,5.3618,5.363,5.3737,5.3691,5.3705,5.3742,5.3769,5.3775,5.3794,5.3833,5.384,5.3808,5.3872,5.3882,5.3931,5.395,5.3922,5.3925,5.4059,5.4061,5.4062,5.4064,0,0,0,0,0,0,5.3613,5.3629,5.3646,5.3691,5.3707,5.3778,5.377,5.3777,5.3801,5.3802,5.3846,5.3853,5.3872,5.3924,5.3935,5.3955,5.3929,5.4057,5.4059,5.4062,5.4062,5.4065,5.4068,0,0,0,0,0,5.3608,5.3642,5.3647,5.3659,5.373,5.3779,5.3788,5.381,5.3803,5.3821,5.3847,5.3851,5.3946,5.3929,5.3941,5.3963,5.4056,5.4059,5.4062,5.4061,5.4065,5.4068,0,0,0,0,0,0,5.3596,5.3648,5.3654,5.3703,5.3737,5.3781,5.3805,5.3813,5.3849,5.3847,5.3873,5.3883,5.393,5.3951,5.3931,5.4012,5.4001,5.4006,5.3996,5.4,5.4003,5.3997,5.3932,0,0,0,0,0,5.36,5.3635,5.3678,5.3718,5.3735,5.3767,5.3789,5.3803,5.3839,5.3853,5.3882,5.3916,5.3954,5.3978,5.4015,5.4065,5.4077,5.4087,5.409,5.4092,5.4097,5.4128,5.4134,5.4072,5.4072,5.4072,0,0,5.3606,5.3639,5.366,5.3716,5.3744,5.3781,5.3778,5.3817,5.3845,5.3858,5.3907,5.3929,5.3969,5.402,5.4043,5.4039,5.4116,5.4096,5.4097,5.4101,5.4132,5.4137,5.4142,5.4074,5.4074,5.4073,0,0,5.3638,5.3666,5.3703,5.3732,5.3774,5.3796,5.3805,5.3849,5.3866,5.3914,5.3926,5.396,5.4024,5.4053,5.4076,5.4122,5.4129,5.4133,5.4149,5.418,5.4185,5.4189,5.4208,5.4214,5.4137,5.4137,5.4137,0,5.3641,5.3697,5.3721,5.376,5.3786,5.3801,5.384,5.3866,5.3918,5.3936,5.393,5.4013,5.4041,5.41,5.4111,5.4129,5.4141,5.4128,5.4182,5.4187,5.4191,5.4209,5.4216,5.4138,5.4138,5.4138,5.4138,0,5.37,5.374,5.3765,5.3817,5.3845,5.3883,5.3914,5.394,5.3952,5.3975,5.4026,5.406,5.4105,5.412,5.4132,5.4182,5.4178,5.4177,5.4167,5.4197,5.4215,5.4222,5.4138,5.4138,5.4138,5.4138,0,0,5.3725,5.3792,5.3801,5.3826,5.3876,5.3907,5.3947,5.3993,5.4015,5.4051,5.4087,5.4142,5.4143,5.4169,5.4184,5.421,5.4248,5.4206,5.4208,5.4215,5.4308,5.431,5.4317,5.4253,5.4254,5.4255,5.4306,0,5.3765,5.3838,5.3862,5.3923,5.3961,5.3977,5.4013,5.4047,5.407,5.4106,5.4131,5.4171,5.4167,5.4183,5.421,5.4238,5.4267,5.4234,5.4287,5.4289,5.4278,5.4326,5.4327,5.4373,5.4312,5.4313,5.4314,0,5.382,5.3859,5.3924,5.3972,5.3989,5.402,5.4066,5.4099,5.414,5.4155,5.4186,5.42,5.4244,5.4231,5.4293,5.427,5.4293,5.431,5.4313,5.4319,5.4304,5.4336,5.4388,5.4395,5.4325,5.4324,5.4323,0,5.3834,5.3903,5.3952,5.3973,5.4029,5.4051,5.4076,5.4115,5.4142,5.4182,5.42,5.4243,5.4268,5.4301,5.4327,5.4315,5.4388,5.4377,5.4403,5.4403,5.4418,5.4417,5.4476,5.443,5.443,5.443,5.443,0,5.3876,5.3916,5.396,5.399,5.4036,5.4063,5.4108,5.4133,5.4169,5.4205,5.4221,5.4255,5.4286,5.4325,5.4345,5.4395,5.4405,5.4419,5.4424,5.4419,5.4417,5.4435,5.4433,5.4432,5.4432,5.4431,5.4431,0,5.39,5.3931,5.3986,5.4036,5.4049,5.4081,5.4124,5.4155,5.4179,5.4225,5.4237,5.4275,5.4321,5.4351,5.4408,5.4422,5.4478,5.4481,5.4464,5.4467,5.4493,5.449,5.4567,5.4579,5.4523,5.4524,5.4524,0,5.3926,5.3957,5.4011,5.4037,5.4063,5.4103,5.4132,5.4161,5.419,5.424,5.4265,5.4312,5.4352,5.4425,5.4458,5.4503,5.4509,5.4532,5.4515,5.451,5.4512,5.451,5.4514,5.4535,5.4536,5.4536,5.4536,0,5.3969,5.3983,5.4023,5.407,5.4104,5.4142,5.418,5.42,5.4236,5.4267,5.4316,5.4346,5.4407,5.4455,5.4503,5.4529,5.4539,5.4542,5.4551,5.4545,5.4536,5.4544,5.4474,5.454,5.4539,5.4539,5.4539,5.4539,5.3996,5.4026,5.4069,5.4115,5.4147,5.4183,5.4215,5.4244,5.4285,5.4338,5.4352,5.4403,5.4445,5.4512,5.4539,5.4579,5.4576,5.4588,5.4592,5.4595,5.4597,5.4528,5.4588,5.4588,5.4588,5.4588,5.4588,0,5.4041,5.4071,5.4112,5.4166,5.4202,5.421,5.4253,5.4283,5.4328,5.4367,5.4406,5.4463,5.451,5.4547,5.4596,5.4621,5.4628,5.4633,5.4633,5.4639,5.4595,5.4584,5.4628,5.4628,5.4628,5.4628,5.4628,5.4628,5.4069,5.4121,5.4141,5.421,5.424,5.429,5.4315,5.4349,5.438,5.4443,5.4483,5.4508,5.4547,5.4599,5.4643,5.4653,5.4671,5.4676,5.4687,5.4646,5.4641,5.4637,5.4627,5.4679,5.4679,5.4727,5.4728,5.4728]}]]